weather.gov     
National Weather Service

Regional Weather Roundup
NWS Homepage
This page is being discontinued on March 12, 2014.
The same data is available at this site. Please update your bookmarks.
Thank you, and we apologize for the inconvenience.
Please send an email to SR-SRH.Webmaster@noaa.gov with any concerns.


Current Version
Previous Version:    01  02  03  04  05  06  07  08  09  10  11  12  13  14  15  16  17  18  19  20  21  22  23  24  25  26  27  28  29  30  
   31  32  33  34  35  36  37  38  39  40  41  42  43  44  45  46  47  48  49  50  51  52  53  54  55  56  57  58  59  60  
[Printable]
984
ASUS44 KLIX 290010
RWRLIX
NEW ORLEANS REGIONAL WEATHER ROUNDUP
NATIONAL WEATHER SERVICE NEW ORLEANS LA
600 PM CST FRI NOV 28 2014

NOTE: "FAIR" INDICATES FEW OR NO CLOUDS BELOW 12,000 FEET WITH NO
      SIGNIFICANT WEATHER AND/OR OBSTRUCTIONS TO VISIBILITY.
      SKY/WX - SKY CONDITION AND SIGNIFICANT WEATHER.
      TMP - AIR TEMPERATURE.     DP    - DEWPOINT TEMPERATURE.
      RH  - RELATIVE HUMIDITY.   PRES  - PRESSURE.
      HI  - HEAT INDEX.          WCI   - WIND CHILL INDEX.

*  THESE STATIONS ARE NOT NWS OR FAA STATIONS AND ARE NOT UNDER
   NWS QUALITY CONTROL.

LAZ038-040-048-061>063-065>067-069-290100-
SOUTHEAST LOUISIANA

CITY           SKY/WX    TMP DP  RH WIND       PRES   REMARKS
N.O. AUDUBON     N/A     53  47  79 MISG        N/A
N.O. INTL ARPT PTCLDY    53  41  63 SE7       30.30S
6HR MIN TEMP:  53; 6HR MAX TEMP:  62;

N.O. LAKEFRONT CLEAR     53  43  68 SE6       30.31S
6HR MIN TEMP:  53; 6HR MAX TEMP:  58;

N.O. DOWNTOWN*   N/A     55  41  58 CALM      30.31S
6HR MIN TEMP:  55; 6HR MAX TEMP:  57;

SLIDELL        CLEAR     46  40  79 SE3       30.30S
6HR MIN TEMP:  46; 6HR MAX TEMP:  60;

BATON ROUGE    CLEAR     50  35  56 E8        30.26F
6HR MIN TEMP:  49; 6HR MAX TEMP:  63;

BOOTHVILLE     CLEAR     54  50  86 E5        30.31S
6HR MIN TEMP:  54; 6HR MAX TEMP:  59;

BELLE CHASSE   PTCLDY    49  41  74 E3        30.31R
6HR MIN TEMP:  49; 6HR MAX TEMP:  60;

BOGALUSA*        N/A     51  37  59 SW5       30.30S
6HR MIN TEMP:  49; 6HR MAX TEMP:  63;

NEW ROADS*       N/A     54  35  48 SE3       30.26S
6HR MIN TEMP:  54; 6HR MAX TEMP:  63;

GONZALES*        N/A     52  44  72 CALM      30.28S
6HR MIN TEMP:  52; 6HR MAX TEMP:  63;

HAMMOND*       CLEAR     48  39  71 SE5       30.31S
HOUMA*         CLEAR     48  43  81 SE3       30.29S
PORT FOURCHON* PTCLDY    57  50  77 E5        30.32S

$$

MSZ070-080>082-290100-
SOUTHERN MISSISSIPPI

CITY           SKY/WX    TMP DP  RH WIND       PRES   REMARKS
MCCOMB         CLEAR     47  30  51 S7        30.26F
6HR MIN TEMP:  47; 6HR MAX TEMP:  60;

GULFPORT       CLEAR     46  37  71 CALM      30.31R
6HR MIN TEMP:  46; 6HR MAX TEMP:  55;

BILOXI         CLEAR     51  32  48 S3        30.31S
6HR MIN TEMP:  51; 6HR MAX TEMP:  55;

PASCAGOULA     CLEAR     42  36  79 CALM      30.31S
6HR MIN TEMP:  41; 6HR MAX TEMP:  61;


$$

COASTAL OBSERVATIONS
LAKE AND NEARSHORE STATIONS

STATION/POSITION TIME  TEMP    WIND        PRES    WAVE
                       AIR SEA DIR/SP/G            HT/PER
                 (UTC) (F)     (DEG/KT/KT) (MB)    (FT/S)
PASCAGOULA       0000   54     150/  6/  8 1025.8
WAVELAND YACHT   0000   51     200/  3/  5 1025.5
GRAND ISLE       0000   56 59   80/  7/  9 1026.3
SOUTHWEST PASS   0000   60                 1026.1
NEW CANAL        0000   52 54   80/  2/  4 1026.4
SHELL BEACH      0000   53 53  100/  5/  6 1026.2

OFFSHORE STATIONS

STATION/POSITION TIME  TEMP    WIND        PRES    WAVE
                       AIR SEA DIR/SP/G            HT/PER
                 (UTC) (F)     (DEG/KT/KT) (MB)    (FT/S)

$$





U.S. Dept. of Commerce
NOAA National Weather Service
1325 East West Highway
Silver Spring, MD 20910
E-mail: w-nws.webmaster@noaa.gov
Page last modified: May 16, 2007
NATIONAL WEATHER SERVICE: for Safety, for Work, for Fun - FOR LIFE